Time,TemperatureF,DewpointF,PressureIn,WindDirection,WindDirectionDegrees,WindSpeedMPH,WindSpeedGustMPH,Humidity,HourlyPrecipIn,Conditions,Clouds,dailyrainin,SoftwareType,DateUTC
2013-04-15 00:07:00,53.8,43.5,29.66,North,-999,-999.0,-999.0,68,-99.99,,,-99.99,meteohub,2013-04-14 23:07:00,
2013-04-15 00:12:00,53.6,43.3,29.66,North,-999,-999.0,-999.0,68,-99.99,,,-99.99,meteohub,2013-04-14 23:12:00,
2013-04-15 00:17:00,53.4,43.5,29.66,North,-999,-999.0,-999.0,69,-99.99,,,-99.99,meteohub,2013-04-14 23:17:00,
2013-04-15 00:22:00,53.2,43.7,29.66,North,-999,-999.0,-999.0,70,-99.99,,,-99.99,meteohub,2013-04-14 23:22:00,
2013-04-15 00:27:00,53.2,44.1,29.66,North,-999,-999.0,-999.0,71,-99.99,,,-99.99,meteohub,2013-04-14 23:27:00,
2013-04-15 00:32:00,53.1,43.9,29.66,North,-999,-999.0,-999.0,71,-99.99,,,-99.99,meteohub,2013-04-14 23:32:00,
2013-04-15 00:37:00,53.2,44.8,29.66,North,-999,-999.0,-999.0,73,-99.99,,,-99.99,meteohub,2013-04-14 23:37:00,
2013-04-15 00:42:00,53.1,44.2,29.66,North,-999,-999.0,-999.0,72,-99.99,,,-99.99,meteohub,2013-04-14 23:42:00,
2013-04-15 00:47:00,52.9,44.4,29.66,North,-999,-999.0,-999.0,73,-99.99,,,-99.99,meteohub,2013-04-14 23:47:00,
2013-04-15 00:57:00,52.7,44.6,29.66,North,-999,-999.0,-999.0,74,-99.99,,,-99.99,meteohub,2013-04-14 23:57:00,
2013-04-15 01:02:00,52.7,45.3,29.66,North,-999,-999.0,-999.0,76,-99.99,,,-99.99,meteohub,2013-04-15 00:02:00,
2013-04-15 01:07:00,52.5,45.5,29.66,North,-999,-999.0,-999.0,77,-99.99,,,-99.99,meteohub,2013-04-15 00:07:00,
2013-04-15 01:17:00,52.3,45.7,29.66,North,-999,-999.0,-999.0,78,-99.99,,,-99.99,meteohub,2013-04-15 00:17:00,
2013-04-15 01:22:00,52.0,45.7,29.66,North,-999,-999.0,-999.0,79,-99.99,,,-99.99,meteohub,2013-04-15 00:22:00,
2013-04-15 01:27:00,51.8,45.9,29.66,North,-999,-999.0,-999.0,80,-99.99,,,-99.99,meteohub,2013-04-15 00:27:00,
2013-04-15 01:32:00,51.8,46.4,29.66,North,-999,-999.0,-999.0,82,-99.99,,,-99.99,meteohub,2013-04-15 00:32:00,
2013-04-15 01:37:00,51.8,46.4,29.66,North,-999,-999.0,-999.0,82,-99.99,,,-99.99,meteohub,2013-04-15 00:37:00,
2013-04-15 01:47:00,51.6,46.9,29.66,North,-999,-999.0,-999.0,84,-99.99,,,-99.99,meteohub,2013-04-15 00:47:00,
2013-04-15 01:52:00,51.6,46.9,29.66,North,-999,-999.0,-999.0,84,-99.99,,,-99.99,meteohub,2013-04-15 00:52:00,
2013-04-15 01:57:00,51.4,47.1,29.66,North,-999,-999.0,-999.0,85,-99.99,,,-99.99,meteohub,2013-04-15 00:57:00,
2013-04-15 02:02:00,51.3,46.9,29.66,North,-999,-999.0,-999.0,85,-99.99,,,-99.99,meteohub,2013-04-15 01:02:00,
2013-04-15 02:12:00,51.3,47.3,29.66,North,-999,-999.0,-999.0,86,-99.99,,,-99.99,meteohub,2013-04-15 01:12:00,
2013-04-15 02:22:00,50.9,46.9,29.66,North,-999,-999.0,-999.0,86,-99.99,,,-99.99,meteohub,2013-04-15 01:22:00,
2013-04-15 02:32:00,50.9,47.5,29.66,North,-999,-999.0,-999.0,88,-99.99,,,-99.99,meteohub,2013-04-15 01:32:00,
2013-04-15 02:37:00,50.9,47.8,29.66,North,-999,-999.0,-999.0,89,-99.99,,,-99.99,meteohub,2013-04-15 01:37:00,
2013-04-15 02:47:00,50.9,48.0,29.66,North,-999,-999.0,-999.0,90,-99.99,,,-99.99,meteohub,2013-04-15 01:47:00,
2013-04-15 02:52:00,50.9,48.0,29.63,North,-999,-999.0,-999.0,90,-99.99,,,-99.99,meteohub,2013-04-15 01:52:00,
2013-04-15 02:57:00,51.1,48.2,29.63,North,-999,-999.0,-999.0,90,-99.99,,,-99.99,meteohub,2013-04-15 01:57:00,
2013-04-15 03:07:00,51.3,48.4,29.66,North,-999,-999.0,-999.0,90,-99.99,,,-99.99,meteohub,2013-04-15 02:07:00,
2013-04-15 03:12:00,51.4,48.6,29.66,North,-999,-999.0,-999.0,90,-99.99,,,-99.99,meteohub,2013-04-15 02:12:00,
2013-04-15 03:17:00,51.4,48.6,29.66,North,-999,-999.0,-999.0,90,-99.99,,,-99.99,meteohub,2013-04-15 02:17:00,
2013-04-15 03:22:00,51.6,48.7,29.66,North,-999,-999.0,-999.0,90,-99.99,,,-99.99,meteohub,2013-04-15 02:22:00,
2013-04-15 03:27:00,51.6,48.7,29.66,North,-999,-999.0,-999.0,90,-99.99,,,-99.99,meteohub,2013-04-15 02:27:00,
2013-04-15 03:32:00,51.4,48.4,29.66,North,-999,-999.0,-999.0,89,-99.99,,,-99.99,meteohub,2013-04-15 02:32:00,
2013-04-15 03:37:00,51.4,48.4,29.66,North,-999,-999.0,-999.0,89,-99.99,,,-99.99,meteohub,2013-04-15 02:37:00,
2013-04-15 03:42:00,51.4,48.4,29.66,North,-999,-999.0,-999.0,89,-99.99,,,-99.99,meteohub,2013-04-15 02:42:00,
2013-04-15 03:47:00,51.6,48.6,29.66,North,-999,-999.0,-999.0,89,-99.99,,,-99.99,meteohub,2013-04-15 02:47:00,
2013-04-15 03:57:00,51.1,48.0,29.66,North,-999,-999.0,-999.0,89,-99.99,,,-99.99,meteohub,2013-04-15 02:57:00,
2013-04-15 04:02:00,50.9,47.8,29.66,North,-999,-999.0,-999.0,89,-99.99,,,-99.99,meteohub,2013-04-15 03:02:00,
2013-04-15 04:07:00,50.9,48.0,29.66,North,-999,-999.0,-999.0,90,-99.99,,,-99.99,meteohub,2013-04-15 03:07:00,
2013-04-15 04:17:00,50.7,48.2,29.66,North,-999,-999.0,-999.0,91,-99.99,,,-99.99,meteohub,2013-04-15 03:17:00,
2013-04-15 04:22:00,50.9,48.4,29.66,North,-999,-999.0,-999.0,91,-99.99,,,-99.99,meteohub,2013-04-15 03:22:00,
2013-04-15 04:27:00,50.7,48.2,29.66,North,-999,-999.0,-999.0,91,-99.99,,,-99.99,meteohub,2013-04-15 03:27:00,
2013-04-15 04:32:00,50.7,48.2,29.66,North,-999,-999.0,-999.0,91,-99.99,,,-99.99,meteohub,2013-04-15 03:32:00,
2013-04-15 04:37:00,50.7,48.2,29.69,North,-999,-999.0,-999.0,91,-99.99,,,-99.99,meteohub,2013-04-15 03:37:00,
2013-04-15 04:42:00,50.7,48.2,29.69,North,-999,-999.0,-999.0,91,-99.99,,,-99.99,meteohub,2013-04-15 03:42:00,
2013-04-15 04:47:00,50.9,48.4,29.69,North,-999,-999.0,-999.0,91,-99.99,,,-99.99,meteohub,2013-04-15 03:47:00,
2013-04-15 04:57:00,50.7,47.8,29.66,North,-999,-999.0,-999.0,90,-99.99,,,-99.99,meteohub,2013-04-15 03:57:00,
2013-04-15 05:02:00,50.7,47.8,29.66,North,-999,-999.0,-999.0,90,-99.99,,,-99.99,meteohub,2013-04-15 04:02:00,
2013-04-15 05:07:00,50.7,47.8,29.69,North,-999,-999.0,-999.0,90,-99.99,,,-99.99,meteohub,2013-04-15 04:07:00,
2013-04-15 05:12:00,50.7,47.8,29.69,North,-999,-999.0,-999.0,90,-99.99,,,-99.99,meteohub,2013-04-15 04:12:00,
2013-04-15 05:17:00,50.7,47.7,29.69,North,-999,-999.0,-999.0,89,-99.99,,,-99.99,meteohub,2013-04-15 04:17:00,
2013-04-15 05:22:00,50.7,47.3,29.69,North,-999,-999.0,-999.0,88,-99.99,,,-99.99,meteohub,2013-04-15 04:22:00,
2013-04-15 05:27:00,50.7,47.3,29.69,North,-999,-999.0,-999.0,88,-99.99,,,-99.99,meteohub,2013-04-15 04:27:00,
2013-04-15 05:32:00,50.7,47.3,29.69,North,-999,-999.0,-999.0,88,-99.99,,,-99.99,meteohub,2013-04-15 04:32:00,
2013-04-15 05:37:00,50.7,46.9,29.69,North,-999,-999.0,-999.0,87,-99.99,,,-99.99,meteohub,2013-04-15 04:37:00,
2013-04-15 05:42:00,50.7,46.8,29.69,North,-999,-999.0,-999.0,86,-99.99,,,-99.99,meteohub,2013-04-15 04:42:00,
2013-04-15 05:47:00,50.5,46.6,29.69,North,-999,-999.0,-999.0,86,-99.99,,,-99.99,meteohub,2013-04-15 04:47:00,
2013-04-15 05:52:00,50.5,46.6,29.69,North,-999,-999.0,-999.0,86,-99.99,,,-99.99,meteohub,2013-04-15 04:52:00,
2013-04-15 05:57:00,50.5,46.6,29.69,North,-999,-999.0,-999.0,86,-99.99,,,-99.99,meteohub,2013-04-15 04:57:00,
2013-04-15 06:02:00,50.5,46.6,29.69,North,-999,-999.0,-999.0,86,-99.99,,,-99.99,meteohub,2013-04-15 05:02:00,
2013-04-15 06:12:00,50.5,46.6,29.69,North,-999,-999.0,-999.0,86,-99.99,,,-99.99,meteohub,2013-04-15 05:12:00,
2013-04-15 06:22:00,50.4,46.0,29.69,North,-999,-999.0,-999.0,85,-99.99,,,-99.99,meteohub,2013-04-15 05:22:00,
2013-04-15 06:27:00,50.4,46.0,29.69,North,-999,-999.0,-999.0,85,-99.99,,,-99.99,meteohub,2013-04-15 05:27:00,
2013-04-15 06:32:00,50.4,46.0,29.69,North,-999,-999.0,-999.0,85,-99.99,,,-99.99,meteohub,2013-04-15 05:32:00,
2013-04-15 06:37:00,50.2,45.9,29.72,North,-999,-999.0,-999.0,85,-99.99,,,-99.99,meteohub,2013-04-15 05:37:00,
2013-04-15 06:42:00,50.2,45.9,29.72,North,-999,-999.0,-999.0,85,-99.99,,,-99.99,meteohub,2013-04-15 05:42:00,
2013-04-15 06:47:00,50.4,46.0,29.72,North,-999,-999.0,-999.0,85,-99.99,,,-99.99,meteohub,2013-04-15 05:47:00,
2013-04-15 06:52:00,50.5,45.9,29.72,North,-999,-999.0,-999.0,84,-99.99,,,-99.99,meteohub,2013-04-15 05:52:00,
2013-04-15 07:02:00,50.5,45.9,29.72,North,-999,-999.0,-999.0,84,-99.99,,,-99.99,meteohub,2013-04-15 06:02:00,
2013-04-15 07:07:00,50.7,46.0,29.72,North,-999,-999.0,-999.0,84,-99.99,,,-99.99,meteohub,2013-04-15 06:07:00,
2013-04-15 07:17:00,51.3,46.2,29.72,North,-999,-999.0,-999.0,83,-99.99,,,-99.99,meteohub,2013-04-15 06:17:00,
2013-04-15 07:22:00,51.3,46.0,29.72,North,-999,-999.0,-999.0,82,-99.99,,,-99.99,meteohub,2013-04-15 06:22:00,
2013-04-15 07:27:00,52.0,46.6,29.72,North,-999,-999.0,-999.0,82,-99.99,,,-99.99,meteohub,2013-04-15 06:27:00,
2013-04-15 07:37:00,53.6,46.6,29.72,North,-999,-999.0,-999.0,77,-99.99,,,-99.99,meteohub,2013-04-15 06:37:00,
2013-04-15 07:42:00,54.5,46.8,29.72,North,-999,-999.0,-999.0,75,-99.99,,,-99.99,meteohub,2013-04-15 06:42:00,
2013-04-15 07:47:00,55.6,47.5,29.72,North,-999,-999.0,-999.0,74,-99.99,,,-99.99,meteohub,2013-04-15 06:47:00,
2013-04-15 07:52:00,55.6,46.4,29.72,North,-999,-999.0,-999.0,71,-99.99,,,-99.99,meteohub,2013-04-15 06:52:00,
2013-04-15 08:02:00,56.7,46.6,29.72,North,-999,-999.0,-999.0,69,-99.99,,,-99.99,meteohub,2013-04-15 07:02:00,
2013-04-15 08:42:00,59.5,46.6,29.75,North,-999,-999.0,-999.0,62,-99.99,,,-99.99,meteohub,2013-04-15 07:42:00,
2013-04-15 08:47:00,60.1,46.2,29.75,North,-999,-999.0,-999.0,60,-99.99,,,-99.99,meteohub,2013-04-15 07:47:00,
2013-04-15 08:52:00,59.5,44.8,29.75,North,-999,-999.0,-999.0,58,-99.99,,,-99.99,meteohub,2013-04-15 07:52:00,
2013-04-15 08:57:00,60.6,46.2,29.75,North,-999,-999.0,-999.0,59,-99.99,,,-99.99,meteohub,2013-04-15 07:57:00,
2013-04-15 09:02:00,60.1,44.8,29.75,North,-999,-999.0,-999.0,57,-99.99,,,-99.99,meteohub,2013-04-15 08:02:00,
2013-04-15 09:12:00,59.4,43.2,29.75,North,-999,-999.0,-999.0,55,-99.99,,,-99.99,meteohub,2013-04-15 08:12:00,
2013-04-15 09:17:00,58.5,43.3,29.75,North,-999,-999.0,-999.0,57,-99.99,,,-99.99,meteohub,2013-04-15 08:17:00,
2013-04-15 09:22:00,57.6,43.0,29.75,North,-999,-999.0,-999.0,58,-99.99,,,-99.99,meteohub,2013-04-15 08:22:00,
2013-04-15 09:27:00,57.0,42.8,29.75,North,-999,-999.0,-999.0,59,-99.99,,,-99.99,meteohub,2013-04-15 08:27:00,
2013-04-15 09:37:00,57.0,43.7,29.75,North,-999,-999.0,-999.0,61,-99.99,,,-99.99,meteohub,2013-04-15 08:37:00,
2013-04-15 09:42:00,57.4,44.1,29.75,North,-999,-999.0,-999.0,61,-99.99,,,-99.99,meteohub,2013-04-15 08:42:00,
2013-04-15 09:47:00,57.4,43.7,29.75,North,-999,-999.0,-999.0,60,-99.99,,,-99.99,meteohub,2013-04-15 08:47:00,
2013-04-15 09:52:00,57.6,43.9,29.75,North,-999,-999.0,-999.0,60,-99.99,,,-99.99,meteohub,2013-04-15 08:52:00,
2013-04-15 09:57:00,57.4,43.7,29.75,North,-999,-999.0,-999.0,60,-99.99,,,-99.99,meteohub,2013-04-15 08:57:00,
2013-04-15 10:02:00,57.7,43.9,29.75,North,-999,-999.0,-999.0,60,-99.99,,,-99.99,meteohub,2013-04-15 09:02:00,
2013-04-15 10:07:00,59.5,45.1,29.75,North,-999,-999.0,-999.0,59,-99.99,,,-99.99,meteohub,2013-04-15 09:07:00,
2013-04-15 10:17:00,58.3,44.1,29.75,North,-999,-999.0,-999.0,59,-99.99,,,-99.99,meteohub,2013-04-15 09:17:00,
2013-04-15 10:22:00,58.3,44.4,29.75,North,-999,-999.0,-999.0,60,-99.99,,,-99.99,meteohub,2013-04-15 09:22:00,
2013-04-15 10:27:00,58.5,44.2,29.75,North,-999,-999.0,-999.0,59,-99.99,,,-99.99,meteohub,2013-04-15 09:27:00,
2013-04-15 10:37:00,57.4,43.2,29.75,North,-999,-999.0,-999.0,59,-99.99,,,-99.99,meteohub,2013-04-15 09:37:00,
2013-04-15 10:42:00,57.4,43.7,29.75,North,-999,-999.0,-999.0,60,-99.99,,,-99.99,meteohub,2013-04-15 09:42:00,
2013-04-15 10:52:00,59.0,44.8,29.75,North,-999,-999.0,-999.0,59,-99.99,,,-99.99,meteohub,2013-04-15 09:52:00,
2013-04-15 10:57:00,60.1,44.4,29.75,North,-999,-999.0,-999.0,56,-99.99,,,-99.99,meteohub,2013-04-15 09:57:00,
2013-04-15 11:07:00,60.8,43.2,29.75,North,-999,-999.0,-999.0,52,-99.99,,,-99.99,meteohub,2013-04-15 10:07:00,
2013-04-15 11:12:00,61.5,42.8,29.75,North,-999,-999.0,-999.0,50,-99.99,,,-99.99,meteohub,2013-04-15 10:12:00,
2013-04-15 11:22:00,61.7,42.4,29.75,North,-999,-999.0,-999.0,49,-99.99,,,-99.99,meteohub,2013-04-15 10:22:00,
2013-04-15 11:32:00,62.8,41.7,29.75,North,-999,-999.0,-999.0,46,-99.99,,,-99.99,meteohub,2013-04-15 10:32:00,
2013-04-15 11:37:00,62.8,42.3,29.75,North,-999,-999.0,-999.0,47,-99.99,,,-99.99,meteohub,2013-04-15 10:37:00,
2013-04-15 11:47:00,63.5,41.7,29.75,North,-999,-999.0,-999.0,45,-99.99,,,-99.99,meteohub,2013-04-15 10:47:00,
2013-04-15 11:52:00,64.4,42.6,29.75,North,-999,-999.0,-999.0,45,-99.99,,,-99.99,meteohub,2013-04-15 10:52:00,
2013-04-15 11:57:00,65.5,43.0,29.75,North,-999,-999.0,-999.0,44,-99.99,,,-99.99,meteohub,2013-04-15 10:57:00,
2013-04-15 12:02:00,65.5,42.4,29.75,North,-999,-999.0,-999.0,43,-99.99,,,-99.99,meteohub,2013-04-15 11:02:00,
2013-04-15 12:07:00,64.8,41.7,29.75,North,-999,-999.0,-999.0,43,-99.99,,,-99.99,meteohub,2013-04-15 11:07:00,
2013-04-15 12:12:00,63.1,40.3,29.75,North,-999,-999.0,-999.0,43,-99.99,,,-99.99,meteohub,2013-04-15 11:12:00,
2013-04-15 12:22:00,62.8,39.9,29.75,North,-999,-999.0,-999.0,43,-99.99,,,-99.99,meteohub,2013-04-15 11:22:00,
2013-04-15 12:27:00,63.5,41.2,29.75,North,-999,-999.0,-999.0,44,-99.99,,,-99.99,meteohub,2013-04-15 11:27:00,
2013-04-15 12:32:00,64.4,41.4,29.75,North,-999,-999.0,-999.0,43,-99.99,,,-99.99,meteohub,2013-04-15 11:32:00,
2013-04-15 12:37:00,64.4,40.8,29.75,North,-999,-999.0,-999.0,42,-99.99,,,-99.99,meteohub,2013-04-15 11:37:00,
2013-04-15 12:42:00,64.2,41.4,29.75,North,-999,-999.0,-999.0,43,-99.99,,,-99.99,meteohub,2013-04-15 11:42:00,
2013-04-15 12:47:00,64.0,40.5,29.75,North,-999,-999.0,-999.0,42,-99.99,,,-99.99,meteohub,2013-04-15 11:47:00,
2013-04-15 12:52:00,63.9,41.0,29.75,North,-999,-999.0,-999.0,43,-99.99,,,-99.99,meteohub,2013-04-15 11:52:00,
2013-04-15 12:57:00,62.8,40.6,29.75,North,-999,-999.0,-999.0,44,-99.99,,,-99.99,meteohub,2013-04-15 11:57:00,
2013-04-15 13:02:00,61.3,39.9,29.75,North,-999,-999.0,-999.0,45,-99.99,,,-99.99,meteohub,2013-04-15 12:02:00,
2013-04-15 13:07:00,61.7,40.8,29.75,North,-999,-999.0,-999.0,46,-99.99,,,-99.99,meteohub,2013-04-15 12:07:00,
2013-04-15 13:17:00,62.4,41.4,29.75,North,-999,-999.0,-999.0,46,-99.99,,,-99.99,meteohub,2013-04-15 12:17:00,
2013-04-15 13:22:00,62.6,41.0,29.75,North,-999,-999.0,-999.0,45,-99.99,,,-99.99,meteohub,2013-04-15 12:22:00,
2013-04-15 13:33:00,64.2,41.9,29.75,North,-999,-999.0,-999.0,44,-99.99,,,-99.99,meteohub,2013-04-15 12:33:00,
2013-04-15 13:42:00,63.5,41.7,29.75,North,-999,-999.0,-999.0,45,-99.99,,,-99.99,meteohub,2013-04-15 12:42:00,
2013-04-15 13:47:00,61.9,40.3,29.75,North,-999,-999.0,-999.0,45,-99.99,,,-99.99,meteohub,2013-04-15 12:47:00,
2013-04-15 13:52:00,61.7,40.8,29.75,North,-999,-999.0,-999.0,46,-99.99,,,-99.99,meteohub,2013-04-15 12:52:00,
2013-04-15 13:57:00,62.8,41.7,29.75,North,-999,-999.0,-999.0,46,-99.99,,,-99.99,meteohub,2013-04-15 12:57:00,
2013-04-15 14:07:00,62.4,41.4,29.75,North,-999,-999.0,-999.0,46,-99.99,,,-99.99,meteohub,2013-04-15 13:07:00,
2013-04-15 14:17:00,66.2,44.2,29.75,North,-999,-999.0,-999.0,45,-99.99,,,-99.99,meteohub,2013-04-15 13:17:00,
2013-04-15 14:27:00,67.3,43.3,29.75,North,-999,-999.0,-999.0,42,-99.99,,,-99.99,meteohub,2013-04-15 13:27:00,
2013-04-15 14:37:00,64.6,40.5,29.75,North,-999,-999.0,-999.0,41,-99.99,,,-99.99,meteohub,2013-04-15 13:37:00,
2013-04-15 14:42:00,62.6,40.5,29.75,North,-999,-999.0,-999.0,44,-99.99,,,-99.99,meteohub,2013-04-15 13:42:00,
2013-04-15 14:47:00,62.2,40.6,29.75,North,-999,-999.0,-999.0,45,-99.99,,,-99.99,meteohub,2013-04-15 13:47:00,
2013-04-15 14:57:00,60.8,40.5,29.78,North,-999,-999.0,-999.0,47,-99.99,,,-99.99,meteohub,2013-04-15 13:57:00,
2013-04-15 15:07:00,61.2,41.9,29.75,North,-999,-999.0,-999.0,49,-99.99,,,-99.99,meteohub,2013-04-15 14:07:00,
2013-04-15 15:12:00,61.2,41.9,29.75,North,-999,-999.0,-999.0,49,-99.99,,,-99.99,meteohub,2013-04-15 14:12:00,
2013-04-15 15:17:00,61.0,42.3,29.75,North,-999,-999.0,-999.0,50,-99.99,,,-99.99,meteohub,2013-04-15 14:17:00,
2013-04-15 15:22:00,62.6,42.6,29.75,North,-999,-999.0,-999.0,48,-99.99,,,-99.99,meteohub,2013-04-15 14:22:00,
2013-04-15 15:27:00,63.5,43.5,29.75,North,-999,-999.0,-999.0,48,-99.99,,,-99.99,meteohub,2013-04-15 14:27:00,
2013-04-15 15:37:00,63.1,41.5,29.75,North,-999,-999.0,-999.0,45,-99.99,,,-99.99,meteohub,2013-04-15 14:37:00,
2013-04-15 15:42:00,64.8,43.0,29.75,North,-999,-999.0,-999.0,45,-99.99,,,-99.99,meteohub,2013-04-15 14:42:00,
2013-04-15 15:47:00,65.7,42.6,29.75,North,-999,-999.0,-999.0,43,-99.99,,,-99.99,meteohub,2013-04-15 14:47:00,
2013-04-15 15:57:00,64.0,40.5,29.75,North,-999,-999.0,-999.0,42,-99.99,,,-99.99,meteohub,2013-04-15 14:57:00,
2013-04-15 16:02:00,64.2,41.9,29.75,North,-999,-999.0,-999.0,44,-99.99,,,-99.99,meteohub,2013-04-15 15:02:00,
2013-04-15 16:07:00,64.4,41.4,29.75,North,-999,-999.0,-999.0,43,-99.99,,,-99.99,meteohub,2013-04-15 15:07:00,
2013-04-15 16:12:00,63.5,40.6,29.75,North,-999,-999.0,-999.0,43,-99.99,,,-99.99,meteohub,2013-04-15 15:12:00,
2013-04-15 16:22:00,62.8,41.7,29.75,North,-999,-999.0,-999.0,46,-99.99,,,-99.99,meteohub,2013-04-15 15:22:00,
2013-04-15 16:27:00,61.5,41.2,29.75,North,-999,-999.0,-999.0,47,-99.99,,,-99.99,meteohub,2013-04-15 15:27:00,
2013-04-15 16:32:00,61.3,41.0,29.75,North,-999,-999.0,-999.0,47,-99.99,,,-99.99,meteohub,2013-04-15 15:32:00,
2013-04-15 16:37:00,60.6,40.8,29.75,North,-999,-999.0,-999.0,48,-99.99,,,-99.99,meteohub,2013-04-15 15:37:00,
2013-04-15 16:42:00,60.4,40.6,29.75,North,-999,-999.0,-999.0,48,-99.99,,,-99.99,meteohub,2013-04-15 15:42:00,
2013-04-15 16:52:00,60.3,41.0,29.75,North,-999,-999.0,-999.0,49,-99.99,,,-99.99,meteohub,2013-04-15 15:52:00,
2013-04-15 16:57:00,60.3,41.5,29.75,North,-999,-999.0,-999.0,50,-99.99,,,-99.99,meteohub,2013-04-15 15:57:00,
2013-04-15 17:02:00,59.5,40.8,29.75,North,-999,-999.0,-999.0,50,-99.99,,,-99.99,meteohub,2013-04-15 16:02:00,
2013-04-15 17:07:00,59.2,41.0,29.75,North,-999,-999.0,-999.0,51,-99.99,,,-99.99,meteohub,2013-04-15 16:07:00,
2013-04-15 17:17:00,59.2,42.1,29.75,North,-999,-999.0,-999.0,53,-99.99,,,-99.99,meteohub,2013-04-15 16:17:00,
2013-04-15 17:22:00,59.2,41.5,29.75,North,-999,-999.0,-999.0,52,-99.99,,,-99.99,meteohub,2013-04-15 16:22:00,
2013-04-15 17:27:00,58.8,41.7,29.75,North,-999,-999.0,-999.0,53,-99.99,,,-99.99,meteohub,2013-04-15 16:27:00,
2013-04-15 17:32:00,58.5,41.4,29.75,North,-999,-999.0,-999.0,53,-99.99,,,-99.99,meteohub,2013-04-15 16:32:00,
2013-04-15 17:42:00,58.3,41.7,29.75,North,-999,-999.0,-999.0,54,-99.99,,,-99.99,meteohub,2013-04-15 16:42:00,
2013-04-15 17:52:00,58.1,42.1,29.75,North,-999,-999.0,-999.0,55,-99.99,,,-99.99,meteohub,2013-04-15 16:52:00,
2013-04-15 18:02:00,58.5,42.4,29.75,North,-999,-999.0,-999.0,55,-99.99,,,-99.99,meteohub,2013-04-15 17:02:00,
2013-04-15 18:07:00,58.3,42.3,29.72,North,-999,-999.0,-999.0,55,-99.99,,,-99.99,meteohub,2013-04-15 17:07:00,
2013-04-15 18:17:00,58.3,41.7,29.72,North,-999,-999.0,-999.0,54,-99.99,,,-99.99,meteohub,2013-04-15 17:17:00,
2013-04-15 18:22:00,58.6,41.2,29.75,North,-999,-999.0,-999.0,52,-99.99,,,-99.99,meteohub,2013-04-15 17:22:00,
2013-04-15 18:27:00,59.9,41.2,29.75,North,-999,-999.0,-999.0,50,-99.99,,,-99.99,meteohub,2013-04-15 17:27:00,
2013-04-15 18:32:00,59.7,40.1,29.75,North,-999,-999.0,-999.0,48,-99.99,,,-99.99,meteohub,2013-04-15 17:32:00,
2013-04-15 18:37:00,59.0,39.4,29.75,North,-999,-999.0,-999.0,48,-99.99,,,-99.99,meteohub,2013-04-15 17:37:00,
2013-04-15 18:42:00,57.9,38.8,29.75,North,-999,-999.0,-999.0,49,-99.99,,,-99.99,meteohub,2013-04-15 17:42:00,
2013-04-15 18:52:00,57.0,39.0,29.75,North,-999,-999.0,-999.0,51,-99.99,,,-99.99,meteohub,2013-04-15 17:52:00,
2013-04-15 18:57:00,56.5,38.7,29.75,North,-999,-999.0,-999.0,51,-99.99,,,-99.99,meteohub,2013-04-15 17:57:00,
2013-04-15 19:07:00,55.9,38.1,29.72,North,-999,-999.0,-999.0,51,-99.99,,,-99.99,meteohub,2013-04-15 18:07:00,
2013-04-15 19:17:00,56.1,38.3,29.72,North,-999,-999.0,-999.0,51,-99.99,,,-99.99,meteohub,2013-04-15 18:17:00,
2013-04-15 19:22:00,56.1,38.3,29.72,North,-999,-999.0,-999.0,51,-99.99,,,-99.99,meteohub,2013-04-15 18:22:00,
2013-04-15 19:32:00,55.6,38.7,29.72,North,-999,-999.0,-999.0,53,-99.99,,,-99.99,meteohub,2013-04-15 18:32:00,
2013-04-15 19:37:00,55.2,38.8,29.72,North,-999,-999.0,-999.0,54,-99.99,,,-99.99,meteohub,2013-04-15 18:37:00,
2013-04-15 19:42:00,54.7,38.8,29.72,North,-999,-999.0,-999.0,55,-99.99,,,-99.99,meteohub,2013-04-15 18:42:00,
2013-04-15 19:47:00,54.5,38.7,29.72,North,-999,-999.0,-999.0,55,-99.99,,,-99.99,meteohub,2013-04-15 18:47:00,
2013-04-15 19:52:00,54.3,39.0,29.72,North,-999,-999.0,-999.0,56,-99.99,,,-99.99,meteohub,2013-04-15 18:52:00,
2013-04-15 19:57:00,54.3,39.4,29.72,North,-999,-999.0,-999.0,57,-99.99,,,-99.99,meteohub,2013-04-15 18:57:00,
2013-04-15 20:02:00,54.3,39.4,29.72,North,-999,-999.0,-999.0,57,-99.99,,,-99.99,meteohub,2013-04-15 19:02:00,
2013-04-15 20:12:00,53.8,39.7,29.72,North,-999,-999.0,-999.0,59,-99.99,,,-99.99,meteohub,2013-04-15 19:12:00,
2013-04-15 20:17:00,53.6,39.6,29.72,North,-999,-999.0,-999.0,59,-99.99,,,-99.99,meteohub,2013-04-15 19:17:00,
2013-04-15 20:22:00,53.4,39.9,29.72,North,-999,-999.0,-999.0,60,-99.99,,,-99.99,meteohub,2013-04-15 19:22:00,
2013-04-15 20:27:00,53.1,39.9,29.72,North,-999,-999.0,-999.0,61,-99.99,,,-99.99,meteohub,2013-04-15 19:27:00,
2013-04-15 20:32:00,53.1,40.5,29.72,North,-999,-999.0,-999.0,62,-99.99,,,-99.99,meteohub,2013-04-15 19:32:00,
2013-04-15 20:37:00,53.1,40.8,29.75,North,-999,-999.0,-999.0,63,-99.99,,,-99.99,meteohub,2013-04-15 19:37:00,
2013-04-15 20:47:00,52.7,40.8,29.75,North,-999,-999.0,-999.0,64,-99.99,,,-99.99,meteohub,2013-04-15 19:47:00,
2013-04-15 20:52:00,52.3,40.5,29.75,North,-999,-999.0,-999.0,64,-99.99,,,-99.99,meteohub,2013-04-15 19:52:00,
2013-04-15 21:02:00,52.2,41.2,29.75,North,-999,-999.0,-999.0,66,-99.99,,,-99.99,meteohub,2013-04-15 20:02:00,
2013-04-15 21:07:00,52.0,41.0,29.72,North,-999,-999.0,-999.0,66,-99.99,,,-99.99,meteohub,2013-04-15 20:07:00,
2013-04-15 21:12:00,51.8,41.5,29.72,North,-999,-999.0,-999.0,68,-99.99,,,-99.99,meteohub,2013-04-15 20:12:00,
2013-04-15 21:17:00,51.6,42.3,29.72,North,-999,-999.0,-999.0,70,-99.99,,,-99.99,meteohub,2013-04-15 20:17:00,
2013-04-15 21:22:00,51.6,42.6,29.72,North,-999,-999.0,-999.0,71,-99.99,,,-99.99,meteohub,2013-04-15 20:22:00,
2013-04-15 21:27:00,51.4,42.4,29.72,North,-999,-999.0,-999.0,71,-99.99,,,-99.99,meteohub,2013-04-15 20:27:00,
2013-04-15 21:32:00,51.4,43.2,29.72,North,-999,-999.0,-999.0,73,-99.99,,,-99.99,meteohub,2013-04-15 20:32:00,
2013-04-15 21:37:00,51.4,43.5,29.72,North,-999,-999.0,-999.0,74,-99.99,,,-99.99,meteohub,2013-04-15 20:37:00,
2013-04-15 21:42:00,51.3,43.3,29.72,North,-999,-999.0,-999.0,74,-99.99,,,-99.99,meteohub,2013-04-15 20:42:00,
2013-04-15 21:47:00,51.3,43.7,29.72,North,-999,-999.0,-999.0,75,-99.99,,,-99.99,meteohub,2013-04-15 20:47:00,
2013-04-15 21:52:00,50.9,43.3,29.72,North,-999,-999.0,-999.0,75,-99.99,,,-99.99,meteohub,2013-04-15 20:52:00,
2013-04-15 21:57:00,50.7,42.8,29.72,North,-999,-999.0,-999.0,74,-99.99,,,-99.99,meteohub,2013-04-15 20:57:00,
2013-04-15 22:02:00,50.7,43.5,29.72,North,-999,-999.0,-999.0,76,-99.99,,,-99.99,meteohub,2013-04-15 21:02:00,
2013-04-15 22:07:00,50.5,43.7,29.72,North,-999,-999.0,-999.0,77,-99.99,,,-99.99,meteohub,2013-04-15 21:07:00,
2013-04-15 22:12:00,50.4,43.5,29.72,North,-999,-999.0,-999.0,77,-99.99,,,-99.99,meteohub,2013-04-15 21:12:00,
2013-04-15 22:17:00,50.4,43.7,29.72,North,-999,-999.0,-999.0,78,-99.99,,,-99.99,meteohub,2013-04-15 21:17:00,
2013-04-15 22:22:00,50.4,44.4,29.72,North,-999,-999.0,-999.0,80,-99.99,,,-99.99,meteohub,2013-04-15 21:22:00,
2013-04-15 22:27:00,50.4,44.4,29.72,North,-999,-999.0,-999.0,80,-99.99,,,-99.99,meteohub,2013-04-15 21:27:00,
2013-04-15 22:32:00,50.2,44.2,29.72,North,-999,-999.0,-999.0,80,-99.99,,,-99.99,meteohub,2013-04-15 21:32:00,
2013-04-15 22:37:00,50.0,44.1,29.72,North,-999,-999.0,-999.0,80,-99.99,,,-99.99,meteohub,2013-04-15 21:37:00,
2013-04-15 22:42:00,50.0,44.4,29.72,North,-999,-999.0,-999.0,81,-99.99,,,-99.99,meteohub,2013-04-15 21:42:00,
2013-04-15 22:47:00,49.6,43.7,29.72,North,-999,-999.0,-999.0,80,-99.99,,,-99.99,meteohub,2013-04-15 21:47:00,
2013-04-15 22:52:00,49.6,44.1,29.72,North,-999,-999.0,-999.0,81,-99.99,,,-99.99,meteohub,2013-04-15 21:52:00,
2013-04-15 22:57:00,49.5,44.2,29.72,North,-999,-999.0,-999.0,82,-99.99,,,-99.99,meteohub,2013-04-15 21:57:00,
2013-04-15 23:02:00,49.5,44.2,29.72,North,-999,-999.0,-999.0,82,-99.99,,,-99.99,meteohub,2013-04-15 22:02:00,
2013-04-15 23:07:00,49.5,44.8,29.69,North,-999,-999.0,-999.0,84,-99.99,,,-99.99,meteohub,2013-04-15 22:07:00,
2013-04-15 23:12:00,49.5,44.6,29.69,North,-999,-999.0,-999.0,83,-99.99,,,-99.99,meteohub,2013-04-15 22:12:00,
2013-04-15 23:17:00,49.3,44.6,29.69,North,-999,-999.0,-999.0,84,-99.99,,,-99.99,meteohub,2013-04-15 22:17:00,
2013-04-15 23:22:00,49.1,44.4,29.69,North,-999,-999.0,-999.0,84,-99.99,,,-99.99,meteohub,2013-04-15 22:22:00,
2013-04-15 23:27:00,49.1,44.4,29.69,North,-999,-999.0,-999.0,84,-99.99,,,-99.99,meteohub,2013-04-15 22:27:00,
2013-04-15 23:32:00,49.1,44.4,29.69,North,-999,-999.0,-999.0,84,-99.99,,,-99.99,meteohub,2013-04-15 22:32:00,
2013-04-15 23:37:00,49.1,44.4,29.69,North,-999,-999.0,-999.0,84,-99.99,,,-99.99,meteohub,2013-04-15 22:37:00,
2013-04-15 23:42:00,49.1,44.4,29.69,North,-999,-999.0,-999.0,84,-99.99,,,-99.99,meteohub,2013-04-15 22:42:00,
2013-04-15 23:47:00,49.1,44.4,29.69,North,-999,-999.0,-999.0,84,-99.99,,,-99.99,meteohub,2013-04-15 22:47:00,
2013-04-15 23:52:00,49.1,44.4,29.69,North,-999,-999.0,-999.0,84,-99.99,,,-99.99,meteohub,2013-04-15 22:52:00,
2013-04-15 23:57:00,49.1,44.4,29.69,North,-999,-999.0,-999.0,84,-99.99,,,-99.99,meteohub,2013-04-15 22:57:00,